Time,TemperatureF,DewpointF,PressureIn,WindDirection,WindDirectionDegrees,WindSpeedMPH,WindSpeedGustMPH,Humidity,HourlyPrecipIn,Conditions,Clouds,dailyrainin,SolarRadiationWatts/m^2,SoftwareType,DateUTC
2013-02-04 00:01:00,61.5,59.0,29.97,SE,127,3.0,-999.0,91,-99.99,,,0.01,0,weatherlink.com 1.10,2013-02-04 06:01:00,
2013-02-04 00:17:00,61.3,59.0,29.96,SE,139,0.0,-999.0,91,-99.99,,,0.01,0,weatherlink.com 1.10,2013-02-04 06:17:00,
2013-02-04 00:31:00,61.2,59.0,29.96,SE,134,0.0,-999.0,91,-99.99,,,0.01,0,weatherlink.com 1.10,2013-02-04 06:31:00,
2013-02-04 00:46:00,61.1,59.0,29.96,ESE,119,0.0,-999.0,91,-99.99,,,0.01,0,weatherlink.com 1.10,2013-02-04 06:46:00,
2013-02-04 01:01:00,60.9,58.0,29.96,ESE,121,0.0,-999.0,91,-99.99,,,0.01,0,weatherlink.com 1.10,2013-02-04 07:01:00,
2013-02-04 01:16:00,60.8,58.0,29.95,SE,143,3.0,-999.0,91,-99.99,,,0.01,0,weatherlink.com 1.10,2013-02-04 07:16:00,
2013-02-04 01:32:00,61.0,59.0,29.94,SE,124,2.0,-999.0,92,-99.99,,,0.01,0,weatherlink.com 1.10,2013-02-04 07:32:00,
2013-02-04 01:47:00,61.2,59.0,29.93,SSE,148,3.0,-999.0,91,-99.99,,,0.01,0,weatherlink.com 1.10,2013-02-04 07:47:00,
2013-02-04 02:02:00,61.6,59.0,29.92,ESE,117,1.0,-999.0,91,-99.99,,,0.01,0,weatherlink.com 1.10,2013-02-04 08:02:00,
2013-02-04 02:17:00,61.9,59.0,29.92,SSE,150,2.0,-999.0,91,-99.99,,,0.01,0,weatherlink.com 1.10,2013-02-04 08:17:00,
2013-02-04 02:32:00,62.2,60.0,29.91,SE,136,2.0,-999.0,91,-99.99,,,0.01,0,weatherlink.com 1.10,2013-02-04 08:32:00,
2013-02-04 02:47:00,62.3,59.0,29.91,SE,146,2.0,-999.0,90,-99.99,,,0.01,0,weatherlink.com 1.10,2013-02-04 08:47:00,
2013-02-04 03:04:00,62.2,59.0,29.91,SE,135,0.0,-999.0,90,-99.99,,,0.01,0,weatherlink.com 1.10,2013-02-04 09:04:00,
2013-02-04 03:17:00,62.0,59.0,29.90,ESE,123,0.0,-999.0,90,-99.99,,,0.01,0,weatherlink.com 1.10,2013-02-04 09:17:00,
2013-02-04 03:32:00,61.8,59.0,29.91,SE,133,0.0,-999.0,90,-99.99,,,0.01,0,weatherlink.com 1.10,2013-02-04 09:32:00,
2013-02-04 03:47:00,61.7,59.0,29.91,SE,133,0.0,-999.0,90,-99.99,,,0.00,0,weatherlink.com 1.10,2013-02-04 09:47:00,
2013-02-04 04:02:00,61.6,59.0,29.91,SE,134,0.0,-999.0,91,-99.99,,,0.00,0,weatherlink.com 1.10,2013-02-04 10:02:00,
2013-02-04 04:17:00,61.6,59.0,29.91,SE,128,0.0,-999.0,91,-99.99,,,0.00,0,weatherlink.com 1.10,2013-02-04 10:17:00,
2013-02-04 04:32:00,61.4,59.0,29.92,SE,128,0.0,-999.0,91,-99.99,,,0.00,0,weatherlink.com 1.10,2013-02-04 10:32:00,
2013-02-04 04:47:00,61.3,59.0,29.92,SE,128,0.0,-999.0,91,-99.99,,,0.00,0,weatherlink.com 1.10,2013-02-04 10:47:00,
2013-02-04 05:02:00,61.4,59.0,29.91,SE,128,0.0,-999.0,92,-99.99,,,0.00,0,weatherlink.com 1.10,2013-02-04 11:02:00,
2013-02-04 05:17:00,61.6,59.0,29.90,SE,132,0.0,-999.0,92,-99.99,,,0.00,0,weatherlink.com 1.10,2013-02-04 11:17:00,
2013-02-04 05:32:00,61.8,60.0,29.89,ESE,115,0.0,-999.0,92,-99.99,,,0.00,0,weatherlink.com 1.10,2013-02-04 11:32:00,
2013-02-04 05:47:00,62.1,60.0,29.89,ESE,115,1.0,-999.0,92,-99.99,,,0.00,0,weatherlink.com 1.10,2013-02-04 11:47:00,
2013-02-04 06:02:00,62.6,60.0,29.89,ESE,105,0.0,-999.0,92,-99.99,,,0.00,0,weatherlink.com 1.10,2013-02-04 12:02:00,
2013-02-04 06:17:00,63.1,61.0,29.89,SE,136,3.0,-999.0,92,-99.99,,,0.00,0,weatherlink.com 1.10,2013-02-04 12:17:00,
2013-02-04 06:32:00,63.6,61.0,29.90,SSE,153,2.0,-999.0,92,-99.99,,,0.00,0,weatherlink.com 1.10,2013-02-04 12:32:00,
2013-02-04 06:47:00,63.9,61.0,29.89,SE,142,1.0,-999.0,91,-99.99,,,0.00,0,weatherlink.com 1.10,2013-02-04 12:47:00,
2013-02-04 07:02:00,64.1,62.0,29.89,SE,146,1.0,-999.0,91,-99.99,,,0.00,0,weatherlink.com 1.10,2013-02-04 13:02:00,
2013-02-04 07:17:00,64.3,62.0,29.88,SE,133,1.0,-999.0,91,-99.99,,,0.00,0,weatherlink.com 1.10,2013-02-04 13:17:00,
2013-02-04 07:32:00,64.5,62.0,29.89,SE,138,2.0,-999.0,90,-99.99,,,0.00,12,weatherlink.com 1.10,2013-02-04 13:32:00,
2013-02-04 07:47:00,64.9,62.0,29.89,East,89,4.0,-999.0,91,-99.99,,,0.00,16,weatherlink.com 1.10,2013-02-04 13:47:00,
2013-02-04 08:02:00,65.3,63.0,29.89,SE,140,0.0,-999.0,91,-99.99,,,0.00,53,weatherlink.com 1.10,2013-02-04 14:02:00,
2013-02-04 08:18:00,65.7,63.0,29.89,South,183,2.0,-999.0,90,-99.99,,,0.00,32,weatherlink.com 1.10,2013-02-04 14:18:00,
2013-02-04 08:32:00,66.2,63.0,29.89,SE,142,2.0,-999.0,90,-99.99,,,0.00,67,weatherlink.com 1.10,2013-02-04 14:32:00,
2013-02-04 08:47:00,66.7,63.0,29.89,SE,142,3.0,-999.0,89,-99.99,,,0.00,60,weatherlink.com 1.10,2013-02-04 14:47:00,
2013-02-04 09:02:00,67.1,64.0,29.90,South,171,1.0,-999.0,89,-99.99,,,0.00,63,weatherlink.com 1.10,2013-02-04 15:02:00,
2013-02-04 09:17:00,67.7,64.0,29.90,SSW,208,5.0,-999.0,88,-99.99,,,0.00,118,weatherlink.com 1.10,2013-02-04 15:17:00,
2013-02-04 09:33:00,68.3,64.0,29.89,SSW,200,3.0,-999.0,86,-99.99,,,0.00,120,weatherlink.com 1.10,2013-02-04 15:33:00,
2013-02-04 09:48:00,68.7,64.0,29.89,SSE,165,6.0,-999.0,85,-99.99,,,0.00,171,weatherlink.com 1.10,2013-02-04 15:48:00,
2013-02-04 10:03:00,69.5,65.0,29.88,SE,137,2.0,-999.0,85,-99.99,,,0.00,185,weatherlink.com 1.10,2013-02-04 16:03:00,
2013-02-04 10:18:00,70.9,65.0,29.86,SSE,153,9.0,-999.0,82,-99.99,,,0.00,287,weatherlink.com 1.10,2013-02-04 16:18:00,
2013-02-04 10:33:00,72.0,66.0,29.86,SSW,194,3.0,-999.0,80,-99.99,,,0.00,434,weatherlink.com 1.10,2013-02-04 16:33:00,
2013-02-04 10:48:00,73.6,66.0,29.84,SSE,147,10.0,-999.0,78,-99.99,,,0.00,457,weatherlink.com 1.10,2013-02-04 16:48:00,
2013-02-04 11:03:00,73.0,66.0,29.85,South,184,9.0,-999.0,78,-99.99,,,0.00,329,weatherlink.com 1.10,2013-02-04 17:03:00,
2013-02-04 11:18:00,73.3,66.0,29.87,SSE,165,9.0,-999.0,79,-99.99,,,0.00,717,weatherlink.com 1.10,2013-02-04 17:18:00,
2013-02-04 11:33:00,74.7,66.0,29.86,SSE,157,5.0,-999.0,75,-99.99,,,0.00,786,weatherlink.com 1.10,2013-02-04 17:33:00,
2013-02-04 11:48:00,75.3,66.0,29.86,ESE,123,2.0,-999.0,73,-99.99,,,0.00,260,weatherlink.com 1.10,2013-02-04 17:48:00,
2013-02-04 12:03:00,74.5,65.0,29.86,South,188,3.0,-999.0,72,-99.99,,,0.00,149,weatherlink.com 1.10,2013-02-04 18:03:00,
2013-02-04 12:18:00,74.0,65.0,29.85,South,176,7.0,-999.0,73,-99.99,,,0.00,213,weatherlink.com 1.10,2013-02-04 18:18:00,
2013-02-04 12:33:00,75.4,66.0,29.83,SE,141,6.0,-999.0,72,-99.99,,,0.00,323,weatherlink.com 1.10,2013-02-04 18:33:00,
2013-02-04 12:48:00,76.6,66.0,29.82,SE,133,9.0,-999.0,70,-99.99,,,0.00,796,weatherlink.com 1.10,2013-02-04 18:48:00,
2013-02-04 13:03:00,76.6,66.0,29.82,South,171,9.0,-999.0,70,-99.99,,,0.00,272,weatherlink.com 1.10,2013-02-04 19:03:00,
2013-02-04 13:18:00,76.2,66.0,29.81,SSW,193,5.0,-999.0,70,-99.99,,,0.00,229,weatherlink.com 1.10,2013-02-04 19:18:00,
2013-02-04 13:33:00,76.2,66.0,29.80,SSE,161,6.0,-999.0,71,-99.99,,,0.00,243,weatherlink.com 1.10,2013-02-04 19:33:00,
2013-02-04 13:49:00,76.3,67.0,29.79,SE,132,6.0,-999.0,72,-99.99,,,0.00,842,weatherlink.com 1.10,2013-02-04 19:49:00,
2013-02-04 14:18:00,78.3,67.0,29.77,SSE,147,5.0,-999.0,68,-99.99,,,0.00,629,weatherlink.com 1.10,2013-02-04 20:18:00,
2013-02-04 14:34:00,78.3,66.0,29.76,SE,146,7.0,-999.0,67,-99.99,,,0.00,596,weatherlink.com 1.10,2013-02-04 20:34:00,
2013-02-04 14:48:00,78.2,66.0,29.76,SSW,194,10.0,-999.0,67,-99.99,,,0.00,566,weatherlink.com 1.10,2013-02-04 20:48:00,
2013-02-04 15:03:00,78.3,67.0,29.76,ESE,107,4.0,-999.0,68,-99.99,,,0.00,533,weatherlink.com 1.10,2013-02-04 21:03:00,
2013-02-04 15:19:00,77.7,66.0,29.75,SSE,149,10.0,-999.0,68,-99.99,,,0.00,496,weatherlink.com 1.10,2013-02-04 21:19:00,
2013-02-04 15:33:00,77.2,67.0,29.76,SSE,165,9.0,-999.0,70,-99.99,,,0.00,457,weatherlink.com 1.10,2013-02-04 21:33:00,
2013-02-04 15:48:00,76.5,66.0,29.75,SE,146,6.0,-999.0,71,-99.99,,,0.00,411,weatherlink.com 1.10,2013-02-04 21:48:00,
2013-02-04 16:03:00,76.0,66.0,29.75,SSE,150,9.0,-999.0,72,-99.99,,,0.00,364,weatherlink.com 1.10,2013-02-04 22:03:00,
2013-02-04 16:19:00,75.4,67.0,29.75,ESE,117,5.0,-999.0,74,-99.99,,,0.00,315,weatherlink.com 1.10,2013-02-04 22:19:00,
2013-02-04 16:33:00,74.8,66.0,29.75,East,91,5.0,-999.0,75,-99.99,,,0.00,267,weatherlink.com 1.10,2013-02-04 22:33:00,
2013-02-04 16:49:00,74.3,66.0,29.75,SE,138,5.0,-999.0,76,-99.99,,,0.00,216,weatherlink.com 1.10,2013-02-04 22:49:00,
2013-02-04 17:04:00,73.6,66.0,29.75,NE,53,9.0,-999.0,78,-99.99,,,0.00,169,weatherlink.com 1.10,2013-02-04 23:04:00,
2013-02-04 17:19:00,72.9,66.0,29.75,South,169,5.0,-999.0,79,-99.99,,,0.00,123,weatherlink.com 1.10,2013-02-04 23:19:00,
2013-02-04 17:34:00,72.1,66.0,29.75,SSE,152,7.0,-999.0,80,-99.99,,,0.00,77,weatherlink.com 1.10,2013-02-04 23:34:00,
2013-02-04 17:49:00,71.2,66.0,29.75,SSE,153,7.0,-999.0,82,-99.99,,,0.00,30,weatherlink.com 1.10,2013-02-04 23:49:00,
2013-02-04 18:04:00,70.1,65.0,29.75,South,171,3.0,-999.0,84,-99.99,,,0.00,9,weatherlink.com 1.10,2013-02-05 00:04:00,
2013-02-04 18:19:00,69.3,65.0,29.76,SE,138,9.0,-999.0,86,-99.99,,,0.00,0,weatherlink.com 1.10,2013-02-05 00:19:00,
2013-02-04 18:34:00,68.6,65.0,29.76,SSE,161,5.0,-999.0,88,-99.99,,,0.00,0,weatherlink.com 1.10,2013-02-05 00:34:00,
2013-02-04 18:49:00,68.1,65.0,29.77,SE,143,6.0,-999.0,89,-99.99,,,0.00,0,weatherlink.com 1.10,2013-02-05 00:49:00,
2013-02-04 19:04:00,67.8,65.0,29.77,South,184,1.0,-999.0,90,-99.99,,,0.00,0,weatherlink.com 1.10,2013-02-05 01:04:00,
2013-02-04 19:19:00,67.5,65.0,29.77,East,81,3.0,-999.0,90,-99.99,,,0.00,0,weatherlink.com 1.10,2013-02-05 01:19:00,
2013-02-04 19:34:00,67.3,64.0,29.78,SSE,158,5.0,-999.0,90,-99.99,,,0.00,0,weatherlink.com 1.10,2013-02-05 01:34:00,
2013-02-04 19:49:00,67.3,64.0,29.79,SSE,166,5.0,-999.0,90,-99.99,,,0.00,0,weatherlink.com 1.10,2013-02-05 01:49:00,
2013-02-04 20:04:00,67.3,64.0,29.79,ESE,120,2.0,-999.0,89,-99.99,,,0.00,0,weatherlink.com 1.10,2013-02-05 02:04:00,
2013-02-04 20:19:00,67.3,64.0,29.80,SE,144,6.0,-999.0,90,-99.99,,,0.00,0,weatherlink.com 1.10,2013-02-05 02:19:00,
2013-02-04 20:34:00,67.2,64.0,29.80,SSE,153,2.0,-999.0,90,-99.99,,,0.00,0,weatherlink.com 1.10,2013-02-05 02:34:00,
2013-02-04 20:49:00,67.3,64.0,29.80,ESE,113,2.0,-999.0,90,-99.99,,,0.00,0,weatherlink.com 1.10,2013-02-05 02:49:00,
2013-02-04 21:04:00,67.1,64.0,29.80,SSE,147,2.0,-999.0,90,-99.99,,,0.00,0,weatherlink.com 1.10,2013-02-05 03:04:00,
2013-02-04 21:19:00,66.8,64.0,29.80,ENE,72,3.0,-999.0,90,-99.99,,,0.00,0,weatherlink.com 1.10,2013-02-05 03:19:00,
2013-02-04 21:34:00,66.6,64.0,29.80,SE,142,1.0,-999.0,91,-99.99,,,0.00,0,weatherlink.com 1.10,2013-02-05 03:34:00,
2013-02-04 21:49:00,66.3,64.0,29.80,South,179,2.0,-999.0,92,-99.99,,,0.00,0,weatherlink.com 1.10,2013-02-05 03:49:00,
2013-02-04 22:04:00,66.2,64.0,29.81,SE,141,3.0,-999.0,92,-99.99,,,0.00,0,weatherlink.com 1.10,2013-02-05 04:04:00,
2013-02-04 22:19:00,66.2,64.0,29.81,SSE,167,2.0,-999.0,92,-99.99,,,0.00,0,weatherlink.com 1.10,2013-02-05 04:19:00,
2013-02-04 22:35:00,66.2,64.0,29.82,SSE,166,3.0,-999.0,93,-99.99,,,0.00,0,weatherlink.com 1.10,2013-02-05 04:35:00,
2013-02-04 22:49:00,66.2,64.0,29.82,South,187,0.0,-999.0,93,-99.99,,,0.00,0,weatherlink.com 1.10,2013-02-05 04:49:00,
2013-02-04 23:04:00,66.3,64.0,29.82,SSE,162,1.0,-999.0,93,-99.99,,,0.00,0,weatherlink.com 1.10,2013-02-05 05:04:00,
2013-02-04 23:19:00,66.1,64.0,29.82,South,182,1.0,-999.0,93,-99.99,,,0.00,0,weatherlink.com 1.10,2013-02-05 05:19:00,
2013-02-04 23:34:00,65.8,64.0,29.83,SSE,158,1.0,-999.0,93,-99.99,,,0.00,0,weatherlink.com 1.10,2013-02-05 05:34:00,
2013-02-04 23:49:00,65.4,63.0,29.82,SE,136,0.0,-999.0,93,-99.99,,,0.00,0,weatherlink.com 1.10,2013-02-05 05:49:00,